Location: Fort Collins
(40.5850°N, 105.0840°W)
Time: 14:42:37
(UTC-06:00)

Daily predictions for brighter satellites

Satellite Brightness Start Highest point End
(mag) Time Altitude Azimuth Time Altitude Azimuth Time Altitude Azimuth
Okean 2 3.4 19:59:41 10° N 20:03:52 74° E 20:08:00 10° SSE
Cosmos 1934 Rocket 4.0 19:59:55 10° S 20:06:01 73° E 20:12:15 10° N
DELTA 2 R/B (1) 3.7 20:01:44 10° W 20:07:17 72° SSW 20:12:50 10° ESE
Resurs 01 Rocket 1.9 20:03:04 10° S 20:07:29 75° WSW 20:11:57 10° NNW
Cosmos 2227 Rocket 2.2 20:04:47 10° NNW 20:10:28 74° ENE 20:16:06 10° SSE
HJ-1C 4.1 20:07:53 10° S 20:11:07 56° W 20:14:23 10° NNW
FengYun 1-2 T 4.3 20:08:21 10° SSE 20:14:00 85° ENE 20:19:38 10° NNW
Meteor 1-29 3.6 20:11:26 10° N 20:14:52 61° WNW 20:18:18 10° SSW
OAO 2 Rocket 3.9 20:13:35 10° WSW 20:18:18 43° S 20:22:50 11° ESE
Meteor 1-12 Rocket 4.4 20:13:00 10° SSE 20:18:33 53° E 20:24:13 10° NNE
Cosmos 2297 Rocket 2.2 20:19:53 10° NNW 20:25:33 71° ENE 20:31:11 10° SSE
Cosmos 1346 Rocket 3.1 20:22:07 10° NNW 20:26:04 71° W 20:30:02 10° S
Cosmos 2082 3.7 20:20:45 10° NNW 20:26:24 88° WSW 20:32:02 10° SSE
ALOS 2.2 20:22:14 10° SSE 20:26:54 79° ENE 20:31:35 10° N
USA 186 1.8 20:24:22 10° SSE 20:27:21 48° ENE 20:30:07 10° N
Cosmos 1939 Rocket 4.5 20:25:01 13° ESE 20:27:27 20° ENE 20:30:29 10° NNE
OTV 4 2.3 20:25:29 10° WSW 20:27:50 22° SSW 20:30:00 11° SSE
Helios 1A 4.5 20:26:39 10° SSW 20:30:34 39° W 20:34:31 10° NNW
Cosmos 1515 4.1 20:30:39 10° N 20:34:19 42° ENE 20:37:39 12° SSE
Cosmos 1461 4.0 20:35:49 10° NW 20:39:36 40° WSW 20:43:17 10° S
SL-24 R/B - RUBIN 2 4.4 20:38:48 10° SSW 20:44:38 89° ESE 20:51:11 10° NNE
CZ-4B DEB 4.4 20:43:09 10° SSW 20:46:13 37° W 20:49:18 10° NNW
Tiangong 1 1.2 20:46:12 10° WNW 20:49:18 67° N 20:50:47 27° E
Cosmos 1743 3.5 20:48:12 20° SE 20:50:03 31° E 20:53:31 10° NNE
Cosmos 2173 Rocket 4.3 20:45:29 10° SSE 20:51:28 45° E 20:57:27 10° NNE
BREEZE-M DEB (TANK) 3.2 20:49:54 10° NNW 20:51:50 25° NNE 20:53:27 17° ENE
RESURS DK-1 2.8 20:49:40 10° NNW 20:53:39 45° ENE 20:55:34 26° ESE
Cosmos 1605 Rocket 4.5 20:50:47 10° SSW 20:57:04 65° W 21:03:17 10° N
H-2A R/B 3.1 20:57:54 24° E 20:58:52 26° ENE 21:02:22 10° N
Cosmos 1697 Rocket 2.6 20:54:49 10° SSW 21:00:27 79° ESE 21:06:08 10° NNE
Cosmos 1626 Rocket 4.0 20:58:04 10° NNW 21:02:24 61° W 21:06:41 10° S
Cosmos 1066 Rocket 4.2 20:57:01 10° N 21:02:43 74° E 21:07:44 14° SSE
Iridium 4 Rocket 3.3 20:58:42 10° N 21:03:43 83° W 21:08:16 10° S
YAOGAN 11 4.1 21:01:48 20° SSE 21:04:54 72° ENE 21:09:21 10° N
Envisat 3.2 21:03:38 25° SE 21:06:24 51° ENE 21:11:19 10° N
Cosmos 2100 Rocket 4.0 21:00:36 10° S 21:06:48 66° E 21:12:58 10° NNE
Cosmos 2084 3.5 21:03:26 10° NW 21:07:31 70° WSW 21:09:46 26° SSE
Cosmos 2298 Rocket 4.1 21:02:50 10° NNW 21:08:10 78° WSW 21:12:23 16° SSE
Cosmos 1937 Rocket 3.5 21:03:59 10° NNW 21:09:16 70° ENE 21:12:16 26° SSE
SL-16 R/B 3.8 21:13:10 17° ENE 21:13:10 17° ENE 21:15:11 10° NE
Cosmos 1758 Rocket 4.2 21:10:46 10° N 21:14:44 33° ENE 21:15:05 33° E
Cosmos 2061 Rocket 3.9 21:10:55 10° S 21:17:12 72° E 21:23:25 10° NNE
ARGOS 4.4 21:16:23 23° E 21:17:19 24° ENE 21:21:33 10° NNE
Cosmos 990 Rocket 4.0 21:14:47 10° NNW 21:20:01 64° ENE 21:22:04 36° SE
deb Chang Zheng 4 3.8 21:16:46 10° NNE 21:21:04 47° E 21:21:50 42° SE
Cosmos 1842 4.4 21:18:32 10° NNE 21:21:26 28° ENE 21:21:26 28° ENE
Lacrosse 5 1.8 21:17:04 10° NW 21:22:10 85° SW 21:24:05 39° SE
Cosmos 1980 Rocket 2.1 21:18:22 10° SSW 21:24:00 75° ESE 21:29:43 10° NNE
H-2A R/B 3.9 21:27:29 14° ENE 21:27:29 14° ENE 21:29:50 10° NNE
MetOp-B 4.5 21:28:11 39° ESE 21:29:30 47° ENE 21:34:37 10° N
SPOT 5 3.1 21:28:37 43° ESE 21:29:44 52° ENE 21:34:24 10° N
ERS-1 Rocket 3.1 21:28:22 23° S 21:31:29 71° WSW 21:36:30 10° NNW
Lacrosse 5 rocket 3.4 21:30:01 10° W 21:32:13 15° WSW 21:33:43 12° SSW
CZ-3C R/B 4.2 21:01:58 10° W 21:32:28 27° SW 21:38:25 16° S
Cosmos 1666 3.8 21:35:55 31° NE 21:35:55 31° NE 21:38:12 10° NNE
Cosmos 1459 Rocket 4.0 21:29:44 10° S 21:35:47 79° W 21:41:55 10° N
Cosmos 1725 Rocket 4.1 21:37:55 41° SE 21:39:39 52° E 21:45:41 10° NNE
Cosmos 2058 Rocket 3.2 21:41:00 56° ENE 21:41:00 56° ENE 21:45:12 10° NNE
CZ-4 DEB 4.3 21:40:10 27° SW 21:40:52 30° W 21:43:42 10° NNW
Cosmos 1763 Rocket 3.4 21:39:37 10° SSW 21:44:44 85° WNW 21:49:50 10° NNE
Cosmos 1606 Rocket 3.6 21:43:37 41° SSW 21:45:06 79° W 21:49:33 10° N
Cosmos 2098 Rocket 3.9 21:41:42 30° SSE 21:45:08 67° E 21:50:52 10° NNE
SPOT 1/Viking Rocket 3.9 21:45:54 44° ENE 21:46:09 44° ENE 21:51:06 10° N
YAOGAN 6 3.5 21:50:43 43° NNE 21:50:43 43° NNE 21:53:24 10° N
Cosmos 2263 Rocket 3.4 21:45:57 10° N 21:50:36 26° NE 21:50:51 26° ENE
DELTA 2 R/B (1) 4.5 21:48:24 10° W 21:53:21 33° SSW 21:53:52 33° SSW
Terra 3.7 21:54:47 18° NE 21:54:47 18° NE 21:57:02 10° NNE
Cosmos 1340 3.3 21:51:31 10° NNW 21:55:13 51° W 21:55:15 51° W
Cosmos 1125 Rocket 3.7 21:50:51 10° N 21:55:57 54° ENE 21:55:59 54° ENE
Meteor 1-15 Rocket 4.2 21:56:11 57° SSE 21:57:12 69° E 22:03:02 10° NNE
Cosmos 2322 Rocket 2.5 21:58:38 46° ENE 21:58:38 46° ENE 22:02:59 10° NNE
Cosmos 1939 Rocket 4.4 22:00:58 28° SW 22:02:09 33° W 22:05:57 10° NNW
OAO 2 Rocket 4.2 21:58:00 10° WSW 22:01:47 36° SW 22:01:47 36° SW
Cosmos 2233 Rocket 4.2 22:03:44 49° E 22:03:44 49° E 22:09:23 10° NNE
Milstar 3 Cent rocket 4.4 21:47:53 10° W 22:06:49 44° SSW 22:10:48 35° SSE
Cosmos 1726 Rocket 4.3 22:07:22 44° WSW 22:08:10 51° W 22:12:28 10° N
Cosmos 841 Rocket 3.9 22:03:13 11° SSW 22:08:17 60° WNW 22:13:27 10° NNE
USA 215 4.1 22:06:04 30° ENE 22:08:26 39° NNE 22:14:24 10° NW
Meteor 2-9 Rocket 4.1 22:08:47 58° SSW 22:09:54 82° W 22:15:20 10° N
MetOp-A 4.3 22:15:10 58° SW 22:15:54 64° WSW 22:21:14 10° NNW
ASTEX 1 4.2 22:19:19 10° N 22:24:07 49° W 22:25:07 42° WSW
H-2A R/B 3.9 22:35:03 23° W 22:35:03 23° W 22:38:12 10° NW
SL-16 R/B 2.8 22:54:57 54° NW 22:54:57 54° NW 23:00:20 10° NNE
ARGOS 4.1 22:57:55 43° WNW 22:57:55 43° WNW 23:02:25 10° NNW
Lacrosse 5 4.4 23:02:16 10° W 23:03:17 12° WSW 23:03:17 12° WSW
H-2A R/B 3.3 23:08:08 36° NNW 23:08:08 36° NNW 23:11:05 10° NNW
Cosmos 2360 Rocket 3.9 23:11:52 24° NNE 23:11:52 24° NNE 23:14:01 10° NNE
Terra 4.0 23:33:41 23° NW 23:33:41 23° NW 23:35:40 10° NNW
Cosmos 2263 Rocket 3.7 23:29:25 10° NW 23:32:32 31° WNW 23:32:32 31° WNW
Cosmos 2322 Rocket 4.2 23:40:22 20° WNW 23:41:53 23° NW 23:46:18 10° N
USA 215 4.1 23:53:25 43° WNW 23:53:25 43° WNW 23:57:41 10° NW
